Regional Weather Roundup
Issued by NWS

Home | Current Version | Previous Version | Graphics & Text | Print | Product List | Glossary On
Versions: 1 2 3 4 5 6 7 8 9 10 11 12 13 14 15 16 17 18 19 20 21 22 23 24 25 26 27 28 29 30 31 32 33 34 35 36 37 38 39 40 41 42 43 44 45 46 47 48 49 50
000
ASUS43 KIND 270309
RWRIN

WEATHER ROUNDUP FOR INDIANA
NATIONAL WEATHER SERVICE INDIANAPOLIS IN
1100 PM EDT WED JUL 26 2017

NOTE: "FAIR" INDICATES FEW OR NO CLOUDS BELOW 12,000 FEET WITH NO
SIGNIFICANT WEATHER AND/OR OBSTRUCTIONS TO VISIBILITY.

* - STATION DOES NOT REPORT WEATHER SUCH AS PRECIPITATION OR FOG.

+ - STATION NOT QUALITY CONTROLLED BY THE NATIONAL WEATHER SERVICE.
    USE DATA WITH CAUTION...ESPECIALLY DEWPOINT AND RELATIVE
    HUMIDITY OBSERVATIONS.

INZ001>003-010>013-019-020-270400-
NORTHWEST INDIANA

CITY           SKY/WX    TMP DP  RH WIND       PRES   REMARKS
GARY /AIRPORT/ CLOUDY    79  72  78 SE10      29.98F
KNOX *+        CLOUDY    73  72  94 CALM      30.01R
LA PORTE +     CLOUDY    74  71  89 CALM      30.01S
MICHIGAN CITY+ CLOUDY    73  70  88 CALM      30.01S
MONTICELLO +   CLOUDY    75  72  89 CALM      30.00R
RENSSELAER +   CLOUDY    75  70  83 E6        29.99S
VALPARAISO     CLOUDY    75  72  90 E3        30.00F

$$

LMZ046-743>745-270400-
SOUTHERN LAKE MICHIGAN

STATION/POSITION TIME  TEMP    WIND        PRES    WAVE
                       AIR SEA DIR/SP/G            HT
                 (UTC) (F)     (DEG/KT/KT) (MB)    (FT)
BURNS HARBOR     0240   79     170/  5/ 11 1015.6F
MICHIGAN CITY    0240   77     160/  7/  9   N/A
5NW MICH CITY    0300   76 75  140/  6/  8   N/A     0

$$

INZ004-005-014>016-021>024-270400-
NORTH CENTRAL INDIANA

CITY           SKY/WX    TMP DP  RH WIND       PRES   REMARKS
GOSHEN         MOCLDY    74  66  76 SE6       30.01F
LOGANSPORT +   CLOUDY    72  70  94 E3        30.02R
PERU/GRISSOM   CLOUDY    74  71  92 SE5       30.00S
ROCHESTER +    CLOUDY    73  70  88 CALM      30.02R
SOUTH BEND     CLOUDY    76  69  79 S6        30.01S
WARSAW +       CLOUDY    72  68  88 CALM      30.02S

$$

INZ006>009-017-018-025>027-270400-
NORTHEAST INDIANA

CITY           SKY/WX    TMP DP  RH WIND       PRES   REMARKS
AUBURN +       CLOUDY    70  64  83 CALM      30.03F
FORT WAYNE     CLOUDY    72  67  84 SE3       30.03S
HUNTINGTON +   MOCLDY    71  69  90 CALM      30.02S
KENDALLVILLE + CLOUDY    69  67  93 E5        30.03F

$$

INZ028-029-035-036-043>045-051>053-270400-
WEST CENTRAL INDIANA

CITY           SKY/WX    TMP DP  RH WIND       PRES   REMARKS
GREENCASTLE +  PTCLDY    73  72  94 CALM      30.01F
LAFAYETTE      CLOUDY    76  73  91 CALM      29.99R
TERRE HAUTE    MOCLDY    80  75  84 SE5       29.98F

$$

INZ030>032-037>040-046>048-054>057-064-065-270400-
CENTRAL INDIANA

CITY           SKY/WX    TMP DP  RH WIND       PRES   REMARKS
CP ATTERBURY + CLOUDY    73  72  94 CALM      30.02S
FRANKFORT +    CLOUDY    76  74  93 SE3       30.03R FOG
INDIANAPOLIS   MOCLDY    78  71  79 SE6       30.01R
-EAGLE CREEK   MOCLDY    79  70  74 MISG      30.01R
KOKOMO +       CLOUDY    73  69  87 SE6       30.02S
MT COMFORT *+  MOCLDY    73  70  88 CALM      30.03R
SHELBYVILLE    PTCLDY    73  69  87 E6        30.01R
ZIONSVILLE +   CLOUDY    74  71  89 S3        30.03S

$$

INZ033-034-041-042-049-050-058-059-270400-
EAST CENTRAL INDIANA

CITY           SKY/WX    TMP DP  RH WIND       PRES   REMARKS
MUNCIE         PTCLDY    75  69  81 S3        30.03S
RICHMOND +     PTCLDY    68  66  94 SE5       30.06S FOG

$$

INZ060-061-067>069-081>083-085>088-270400-
SOUTHWEST INDIANA

CITY           SKY/WX    TMP DP  RH WIND       PRES   REMARKS
EVANSVILLE     CLOUDY    78  72  81 CALM      30.00F
HUNTINGBURG *+ CLOUDY    75  72  90 SE3       30.01F

$$

INZ062-063-066-070>080-084-089>092-270400-
SOUTH CENTRAL AND SOUTHEAST INDIANA

CITY           SKY/WX    TMP DP  RH WIND       PRES   REMARKS
BEDFORD +      MOCLDY    75  70  83 CALM      30.01S
BLOOMINGTON    MOCLDY    77  71  82 SW3       30.01S
MADISON *+     CLOUDY    79  72  78 CALM      30.05R
NORTH VERNON + MOCLDY    75  72  88 E3        30.03R
SEYMOUR +      CLOUDY    79  73  83 S3        30.01R

$$





USA.gov is the U.S. government's official web portal to all federal, state and local government web resources and services.